Location: Kampong Dusun Nanding
(3.1063°N, 101.8078°E)
Time: 09:15:37
(UTC+00:00)

Daily predictions for brighter satellites

Satellite Brightness Start Highest point End
(mag) Time Altitude Azimuth Time Altitude Azimuth Time Altitude Azimuth
Hubble Space Telescope 3.4 12:03:08 10° WSW 12:05:14 14° SSW 12:07:19 10° S
USA 234 4.1 12:01:36 10° ESE 12:06:51 26° NE 12:12:07 10° N
Ariane 3 Deb 3.1 12:05:29 10° W 12:08:55 77° S 12:17:27 11° E
NOAA 6 4.3 12:04:37 10° SSE 12:09:25 42° ENE 12:14:14 10° N
Cosmos 1315 Rocket 2.6 12:05:49 10° N 12:09:36 89° ESE 12:13:25 10° S
Ariane H10+ 1.9 12:07:02 10° W 12:10:58 76° N 12:16:55 15° E
Spot 4 Rocket 4.0 12:06:48 10° SSE 12:11:51 60° ENE 12:16:51 10° N
Cosmos 1975 Rocket 3.0 12:07:31 10° S 12:11:54 63° E 12:16:13 10° NNE
CRYOSAT 2 4.3 12:08:30 10° N 12:13:21 80° E 12:18:14 10° S
Orbus 7S 3.4 12:12:15 10° W 12:13:46 26° SSW 12:15:07 11° SSE
Cosmos 2151 Rocket 3.7 12:10:17 10° N 12:14:46 81° W 12:19:14 10° S
Ariane H10 1.8 12:13:42 10° WNW 12:16:22 36° N 12:16:43 32° NNE
Cosmos 1346 Rocket 2.7 12:13:17 10° S 12:16:46 46° E 12:20:13 10° NNE
YAOGAN 1 2.8 12:13:02 10° S 12:17:16 70° WSW 12:21:29 10° NNW
Cosmos 783 Rocket 4.4 12:15:32 10° S 12:20:48 71° ESE 12:26:03 10° NNE
Cosmos 2263 Rocket 2.1 12:16:33 10° S 12:22:10 78° ESE 12:27:48 10° NNE
Helios 1A Rocket 4.5 12:22:14 10° NNW 12:25:03 28° WNW 12:27:53 10° SW
SeaSat 1 2.6 12:22:49 10° SSE 12:27:41 73° WSW 12:32:33 10° NNW
Cosmos 1602 4.0 12:25:23 10° SSW 12:28:03 43° W 12:30:41 10° NNW
Cosmos 1356 Rocket 4.0 12:25:32 10° NNW 12:29:26 57° W 12:33:23 10° S
Cosmos 2082 4.2 12:24:37 10° S 12:29:46 36° ESE 12:32:19 24° ENE
Milstar 3 Cent rocket 4.0 12:23:17 10° SW 12:30:28 49° SE 12:39:23 23° E
Aureole 3 Rocket 2.2 12:28:49 13° N 12:31:20 52° E 12:34:26 10° SSE
Resurs 01 Rocket 1.4 12:31:36 10° SSE 12:35:58 73° ENE 12:40:18 10° N
Cosmos 1455 Rocket 3.3 12:32:10 10° NNE 12:36:12 41° E 12:40:17 10° SSE
COSMOS 2428 3.0 12:31:03 10° N 12:36:22 41° ENE 12:41:40 10° SE
SWIFT 2.2 12:33:47 10° SW 12:36:54 42° SSE 12:37:17 40° SE
ARIANE DEB (SPELDA) 2.5 12:37:27 10° WSW 12:42:02 41° S 12:42:30 37° SSE
Okean 2 Rocket 4.3 12:39:48 10° NNW 12:43:54 42° W 12:48:02 10° SSW
BLOCK DM-SL R/B 2.6 12:39:13 10° WSW 12:45:02 33° SSW 12:45:48 28° SSE
Cosmos 2227 Rocket 4.2 12:42:29 10° SW 12:47:08 27° WNW 12:51:48 10° NNW
Okean 1 Rocket 4.1 12:43:52 10° NNW 12:48:00 46° W 12:52:08 10° SSW
Radarsat Rocket 4.5 12:46:11 10° S 12:52:11 60° WSW 12:57:54 10° NNW
ATLAS 5 CENTAUR R/B 2.4 12:49:26 10° N 12:55:11 59° ENE 13:01:52 10° SE
USA 215 3.5 12:53:55 38° E 12:55:43 47° SE 13:01:55 10° SSW
Cosmos 2219 Rocket 4.4 12:51:25 10° NW 12:55:58 26° WSW 13:00:34 10° SSW
Cosmos 192 4.3 12:51:27 10° NNW 12:56:19 83° WSW 13:01:13 10° S
Cosmos 2285 Rocket 4.1 12:53:05 10° N 12:59:11 49° ENE 13:05:15 10° SSE
Cosmos 2322 3.6 12:54:58 10° NNW 13:00:41 88° WSW 13:06:24 10° SSE
SPELTRA 3.5 12:57:29 10° WSW 13:01:22 80° S 13:04:05 41° E
Cosmos 1862 3.7 12:59:52 10° SSW 13:03:24 53° W 13:03:35 53° WNW
SJ-6B 3.9 13:09:13 10° S 13:12:19 38° WSW 13:12:19 38° WSW
IRAS Rocket 4.4 13:08:58 10° S 13:14:28 71° WSW 13:20:00 10° NNW
Cosmos 1072 Rocket 4.3 13:11:32 10° N 13:17:40 89° E 13:23:46 10° S
Milstar 3 4.2 13:15:35 10° NW 13:25:17 62° NNE 13:30:28 45° E
ARIANE 3 DEB 4.1 13:21:18 10° W 13:26:27 51° NW 13:26:27 51° NW
Meteor 2-12 Rocket 4.5 13:25:24 10° S 13:30:37 68° SSW 13:30:37 68° SSW
Cosmos 1844 Rocket 4.4 13:27:31 10° S 13:29:26 21° S 13:29:26 21° S
CZ-3 Stage 3 4.2 13:35:02 10° NW 13:37:20 16° NNW 13:37:20 16° NNW
NOSS 0 Rocket 4.5 13:34:16 10° NNW 13:46:46 - S 13:38:58 51° NW
USA 234 4.0 13:44:37 16° SSE 13:49:34 47° SW 13:55:47 10° NW
Ariane H10+ 3.8 14:10:19 10° W 14:13:43 40° W 14:13:43 40° W
CZ-4C R/B 4.0 20:49:10 40° NNE 20:51:40 48° ENE 21:00:25 10° SE
SL-16 R/B 2.8 21:13:29 10° SSE 21:19:36 62° ENE 21:21:09 47° NNE
ARIANE 42L R/B 3.6 21:28:19 74° W 21:28:58 88° N 21:53:00 10° E
Centaur D-1AR AC-48 2.5 21:38:00 41° NE 21:38:00 41° NE 21:40:52 10° E
Cosmos 1934 Rocket 4.4 21:33:24 10° S 21:39:19 59° E 21:45:16 10° NNE
Cosmos 1727 Rocket 4.5 21:46:53 10° N 21:52:58 61° E 21:59:09 10° SSE
Meteor 2-14 Rocket 4.3 22:00:45 12° NNW 22:06:17 64° W 22:12:17 10° S
Cosmos 1375 Rocket 4.5 22:03:22 17° NNW 22:08:36 87° WSW 22:15:08 10° SSE
Cosmos 1980 Rocket 2.3 22:04:14 10° SSW 22:09:35 47° WNW 22:14:54 10° N
ARIANE 3 DEB 4.4 22:10:31 11° S 22:10:31 11° S 22:11:13 10° SSE
Hubble Space Telescope 2.1 22:08:49 16° SSW 22:11:15 32° SSE 22:14:39 10° E
ISS -1.1 22:14:31 11° N 22:14:31 11° N 22:14:36 10° N
Cosmos 1503 Rocket 3.9 22:09:07 10° SSW 22:14:10 59° WNW 22:19:13 10° N
Palapa B4 Rocket 4.2 22:10:57 28° W 22:14:43 56° SSW 22:19:48 10° SE
NOAA 12 4.1 22:10:24 10° N 22:15:34 59° WNW 22:20:48 10° SSW
USA 290 2.1 22:16:29 56° WSW 22:16:29 56° WSW 22:19:32 10° S
Cosmos 1441 Rocket 2.8 22:18:27 50° W 22:18:38 50° W 22:21:51 10° S
Delta 202 3.8 22:17:38 29° WNW 22:20:37 84° SSW 22:27:45 10° ESE
GPS 2-15 Rocket1 3.0 22:19:37 33° W 22:21:35 76° SSW 22:26:11 10° ESE
UNK 3.6 22:18:06 10° S 22:22:35 67° WSW 22:27:02 10° NNW
Cosmos 1908 Rocket 3.9 22:18:27 10° S 22:22:42 64° E 22:26:57 10° NNE
IRS-1D 3.6 22:19:22 10° N 22:24:14 49° WNW 22:29:03 10° SSW
Aureole 3 4.1 22:20:38 10° N 22:24:49 51° E 22:28:18 10° SSE
SWIFT 3.5 22:27:47 16° NNW 22:29:15 22° NNE 22:31:52 10° ENE
Meteor 2-21 Rocket 4.3 22:29:21 10° N 22:35:24 74° W 22:41:26 10° S
CZ-4 R/B 4.1 22:30:51 10° N 22:35:34 47° WNW 22:40:15 10° SSW
Meteor 1-21 Rocket 4.1 22:32:47 10° N 22:38:27 80° W 22:44:02 10° S
CZ-4C R/B 4.1 22:34:12 16° WNW 22:40:01 30° WSW 22:47:38 10° S
Cosmos 1814 Rocket 4.5 22:40:18 10° NW 22:44:58 37° WSW 22:49:39 10° SSW
NOSS 3-1 (A) 3.2 22:42:09 10° SW 22:46:05 31° WNW 22:49:58 10° N
Cosmos 2297 Rocket 2.6 22:41:19 10° N 22:46:53 66° ENE 22:52:28 10° SSE
Intelsat 5-3 Rocket 4.0 22:48:47 12° W 22:53:19 53° NNW 23:04:16 10° ENE
DELTA 2 R/B (1) 4.3 22:49:54 10° WSW 22:54:50 33° NW 22:59:46 10° NNE
Cosmos 1400 Rocket 2.5 22:51:38 10° SSW 22:55:19 70° W 22:59:02 10° N
Delta 7925 Rocket 3.4 22:52:54 10° WSW 22:57:25 49° NNW 23:02:00 10° NE
SMAP 3.8 22:56:24 10° NNE 23:00:57 60° ESE 23:05:32 10° S
SL-16 R/B 4.3 23:02:07 10° WSW 23:02:51 10° WSW 23:03:33 10° W
Cosmos 1378 Rocket 3.6 23:00:49 10° NNW 23:05:01 57° W 23:09:15 10° S
EO 1 Delta rocket 4.0 23:01:40 10° N 23:07:13 73° W 23:11:56 10° SSW
ARIANE 5 R/B 4.3 23:04:52 10° NE 23:09:27 37° ESE 23:14:04 10° S
GP-B 3.6 23:05:46 10° N 23:10:05 66° E 23:14:25 10° S
Cosmos 2123 Rocket 4.3 23:06:56 10° NNW 23:12:45 45° W 23:18:36 10° SSW
